User: anonymous   Login
Location: Unspecified
(0.0000°N, 0.0000°E)
Time: 23:18:37
(UTC+00:00)
Language:

CORVUS BC2 - Orbit

View from above orbital plane
View from above orbital plane
View from above satellite
View from above satellite

Ground track
Ground track

The orbit data is extracted from the following two-line orbital elements,

1 42846U 17042X   23083.49737669  .00006245  00000-0  58735-3 0  9993
2 42846  97.3937 289.6237 0010049 132.4624 227.7448 14.94178589310078
Epoch (UTC): 24 March 2023 11:56:13
Eccentricity: 0.0010049
inclination: 97.3937°
perigee height: 578 km
apogee height: 592 km
right ascension of ascending node: 289.6237°
argument of perigee: 132.4624°
revolutions per day: 14.94178589
mean anomaly at epoch: 227.7448°
orbit number at epoch: 31007

The dashed part of the orbit path shows where the satellite is in the earth's shadow,  

DLR